Flight Track Log - Related Links

Times and Time Zones

All times are in EDT time to prevent confusion due to time zone crossing. See the SWA2436 flight status page for this flight to view local times or setup timezone preferences in your user account.


Time Position Orientation Groundspeed Altitude Reporting Facility
EDT Latitude Longitude Course Direction KTS MPH feet Rate Location/Type
Mon 10:27:03 AM 34.0667 -117.6667 59° Northeast 202 232 4,000  Level Southern California TRACON
Mon 10:29:24 AM 34.1169 -117.8308 290° West 245 282 10,000 2,926 Climbing Los Angeles Center
Mon 10:30:26 AM 34.1522 -117.8736 315° West 193 222 13,900 1,951 Climbing Los Angeles Center
Mon 10:31:27 AM 34.2011 -117.9283 317° Northwest 240 276 14,000 537 Climbing Los Angeles Center
Mon 10:32:00 AM 34.4191 -117.7617 59° Northeast  Level FlightAware Approximate
Mon 10:32:29 AM 34.2869 -117.8864 22° Northeast 343 395 15,000  Level Los Angeles Center
Mon 10:33:30 AM 34.3478 -117.7739 57° Northeast 391 450 16,000 1,073 Climbing Los Angeles Center
Mon 10:34:32 AM 34.4086 -117.6872 50° Northeast 394 453 17,200 2,226 Climbing Los Angeles Center
Mon 10:35:34 AM 34.4919 -117.5658 50° Northeast 395 455 20,600 2,829 Climbing Los Angeles Center
Mon 10:36:35 AM 34.5653 -117.4575 51° Northeast 418 481 23,000 2,244 Climbing Los Angeles Center
Mon 10:37:37 AM 34.6389 -117.3469 51° Northeast 424 488 25,200 1,694 Climbing Los Angeles Center
Mon 10:38:39 AM 34.7183 -117.2308 50° Northeast 446 513 26,500 878 Climbing Los Angeles Center
Mon 10:39:40 AM 34.8011 -117.1061 51° Northeast 472 543 27,000 976 Climbing Los Angeles Center
Mon 10:40:42 AM 34.8847 -116.9836 50° Northeast 474 545 28,500 976 Climbing Los Angeles Center
Mon 10:41:43 AM 34.9869 -116.8294 51° Northeast 488 562 29,000 244 Climbing Los Angeles Center
Mon 10:42:45 AM 35.0761 -116.6961 51° Northeast 504 580 29,000  Level Los Angeles Center
Mon 10:43:47 AM 35.1636 -116.5653 51° Northeast 503 579 29,000  Level Los Angeles Center
Mon 10:44:48 AM 35.2492 -116.4350 51° Northeast 497 572 29,000  Level Los Angeles Center
Mon 10:45:50 AM 35.3192 -116.3292 51° Northeast 499 574 29,000  Level Los Angeles Center
Mon 10:46:52 AM 35.4208 -116.1725 51° Northeast 491 565 29,000  Level Los Angeles Center
Mon 10:47:53 AM 35.5067 -116.0428 51° Northeast 490 564 29,000  Level Los Angeles Center
Mon 10:48:55 AM 35.5794 -115.8664 63° Northeast 499 574 29,000  Level Los Angeles Center
Mon 10:49:57 AM 35.6403 -115.7117 64° Northeast 504 580 29,000  Level Los Angeles Center
Mon 10:50:58 AM 35.6997 -115.5544 65° Northeast 507 583 29,000  Level Los Angeles Center
Mon 10:52:00 AM 35.7497 -115.4292 64° Northeast 511 588 29,000  Level Los Angeles Center
Mon 10:53:02 AM 35.8364 -115.2069 64° Northeast 517 595 29,000  Level Los Angeles Center
Mon 10:54:04 AM 35.8981 -115.0469 65° Northeast 519 597 29,000 629 Level Los Angeles Center
Mon 10:55:06 AM 35.9583 -114.8872 65° Northeast 518 596 30,300 1,366 Climbing Los Angeles Center
Mon 10:56:07 AM 36.0214 -114.7242 64° Northeast 525 604 31,800 1,317 Climbing Los Angeles Center
Mon 10:57:09 AM 36.0831 -114.5600 65° Northeast 530 610 33,000 581 Climbing Los Angeles Center
Mon 10:58:11 AM 36.1472 -114.3936 64° Northeast 535 616 33,000  Level Los Angeles Center
Mon 10:59:13 AM 36.2217 -114.1956 65° Northeast 533 613 33,000  Level Los Angeles Center
Mon 11:00:14 AM 36.2828 -114.0331 65° Northeast 527 606 33,000  Level Los Angeles Center
Mon 11:01:16 AM 36.3428 -113.8675 66° East 527 606 33,000  Level Los Angeles Center
Mon 11:02:18 AM 36.4069 -113.7053 64° Northeast 525 604 33,000  Level Los Angeles Center
Mon 11:03:20 AM 36.4672 -113.5361 66° East 535 616 33,000  Level Los Angeles Center
Mon 11:04:21 AM 36.5278 -113.3711 65° Northeast 530 610 33,000  Level Los Angeles Center
Mon 11:05:23 AM 36.5856 -113.2150 65° Northeast 508 585 33,000  Level Los Angeles Center
Mon 11:06:25 AM 36.6550 -113.0231 66° East 508 585 33,000  Level Los Angeles Center
Mon 11:07:27 AM 36.7125 -112.8647 66° East 506 582 33,000  Level Los Angeles Center
Mon 11:08:29 AM 36.7689 -112.7072 66° East 503 579 33,000  Level Los Angeles Center
Mon 11:09:31 AM 36.8272 -112.5472 65° Northeast 506 582 33,000  Level Los Angeles Center
Mon 11:10:32 AM 36.8864 -112.3831 66° East 515 593 33,000  Level Los Angeles Center
Mon 11:11:34 AM 36.9558 -112.1856 66° East 520 598 33,000  Level Los Angeles Center
Mon 11:12:10 AM 36.9908 -112.0878 66° East 518 596 33,000  Level Denver Center
Mon 11:13:12 AM 37.0481 -111.9269 66° East 515 593 33,000  Level Denver Center
Mon 11:14:14 AM 37.1039 -111.7681 66° East 508 585 33,000  Level Denver Center
Mon 11:15:16 AM 37.1589 -111.6089 67° East 504 580 33,000  Level Denver Center
Mon 11:16:18 AM 37.2147 -111.4458 67° East 508 585 33,000 48 Level Denver Center
Mon 11:17:20 AM 37.2706 -111.2806 67° East 512 589 33,100 968 Climbing Denver Center
Mon 11:18:22 AM 37.3361 -111.0817 67° East 517 595 35,000 919 Climbing Denver Center
Mon 11:19:24 AM 37.3992 -110.9225 63° Northeast 510 587 35,000 339 Level Denver Center
Mon 11:20:26 AM 37.4642 -110.7622 63° Northeast 515 593 35,700 968 Climbing Denver Center
Mon 11:21:28 AM 37.5278 -110.5997 64° Northeast 519 597 37,000 1,113 Climbing Denver Center
Mon 11:22:30 AM 37.5981 -110.4178 64° Northeast 520 598 38,000 823 Climbing Denver Center
Mon 11:23:32 AM 37.6597 -110.2581 64° Northeast 528 608 38,700 484 Climbing Denver Center
Mon 11:24:34 AM 37.7300 -110.0747 64° Northeast 518 596 39,000  Climbing Denver Center
Mon 11:25:36 AM 37.7903 -109.9206 64° Northeast 512 589 38,700 -677 Descending Denver Center
Mon 11:26:38 AM 37.8611 -109.7372 64° Northeast 516 594 37,600 -823 Descending Denver Center
Mon 11:27:40 AM 37.9211 -109.5792 64° Northeast 519 597 37,000 -265 Descending Denver Center
Mon 11:28:54 AM 37.9894 -109.3967 65° Northeast 515 593 37,000  Level Denver Center
Mon 11:29:57 AM 38.0606 -109.2072 64° Northeast 513 590 37,000  Level Denver Center
Mon 11:30:59 AM 38.1286 -109.0267 64° Northeast 510 587 37,000  Level Denver Center
Mon 11:32:01 AM 38.1864 -108.8711 65° Northeast 509 586 37,000  Level Denver Center
Mon 11:33:03 AM 38.2483 -108.6894 66° East 499 574 37,000  Level Denver Center
Mon 11:34:05 AM 38.2447 -108.5208 92° East 502 578 37,000  Level Denver Center
Mon 11:35:07 AM 38.2064 -108.3417 105° East 477 549 37,000  Level Denver Center
Mon 11:36:21 AM 38.2458 -108.1811 73° East 499 574 37,000 -61 Level Denver Center
Mon 11:38:25 AM 38.4019 -107.8339 60° Northeast 507 583 36,800 -449 Descending Denver Center
Mon 11:39:28 AM 38.4772 -107.6578 61° Northeast 508 585 35,600 -1,016 Descending Denver Center
Mon 11:40:29 AM 38.5439 -107.5058 61° Northeast 511 588 34,700 -976 Descending Denver Center
Mon 11:41:31 AM 38.6219 -107.3247 61° Northeast 517 595 33,600 -968 Descending Denver Center
Mon 11:42:33 AM 38.6806 -107.1886 61° Northeast 510 587 32,700 -960 Descending Denver Center
Mon 11:43:36 AM 38.7614 -106.9997 61° Northeast 506 582 31,600 -816 Descending Denver Center
Mon 11:44:38 AM 38.8267 -106.8425 62° Northeast 504 580 31,000 -293 Descending Denver Center
Mon 11:45:39 AM 38.8792 -106.7192 61° Northeast 497 572 31,000 -484 Level Denver Center
Mon 11:46:42 AM 38.9556 -106.5358 62° Northeast 490 564 30,000 -960 Descending Denver Center
Mon 11:47:44 AM 39.0169 -106.3850 62° Northeast 483 556 29,000 -1,016 Descending Denver Center
Mon 11:48:46 AM 39.0875 -106.2189 61° Northeast 474 545 27,900 -1,016 Descending Denver Center
Mon 11:49:48 AM 39.1472 -106.0708 62° Northeast 467 537 26,900 -919 Descending Denver Center
Mon 11:50:50 AM 39.2092 -105.9222 62° Northeast 466 536 26,000 -1,210 Descending Denver Center
Mon 11:51:52 AM 39.2694 -105.7728 62° Northeast 466 536 24,400 -1,548 Descending Denver Center
Mon 11:52:54 AM 39.3375 -105.6083 62° Northeast 444 511 22,800 -1,403 Descending Denver Center
Mon 11:53:56 AM 39.3928 -105.4850 60° Northeast 396 456 21,500 -1,452 Descending Denver Center
Mon 11:54:58 AM 39.4569 -105.3658 55° Northeast 382 440 19,800 -1,790 Descending Denver Center
Mon 11:56:00 AM 39.5147 -105.2528 56° Northeast 373 429 17,800 -1,355 Descending Denver Center
Mon 11:57:02 AM 39.5772 -105.1361 55° Northeast 366 421 17,000 -919 Descending Denver Center
Mon 11:58:04 AM 39.6314 -105.0303 56° Northeast 355 409 15,900 -1,355 Descending Denver Center
Mon 11:59:06 AM 39.6889 -104.9206 56° Northeast 341 392 14,200 -1,548 Descending Denver Center
Mon 12:00:08 PM 39.7556 -104.8406 43° Northeast 341 392 12,700 -1,258 Descending Denver Center
Mon 12:01:10 PM 39.8464 -104.8400 360° North 323 372 11,600 -823 Descending Denver Center
Mon 12:02:12 PM 39.9367 -104.8383 North 299 344 11,000 -774 Descending Denver Center
Mon 12:03:14 PM 40.0131 -104.8400 359° North 278 320 10,000 -968 Descending Denver Center
Mon 12:04:16 PM 40.0903 -104.8406 360° North 279 321 9,000 -968 Descending Denver Center
Mon 12:05:18 PM 40.1442 -104.7933 34° Northeast 247 284 8,000 -484 Descending Denver Center
Mon 12:06:20 PM 40.1019 -104.7556 146° Southeast 223 257 8,000  Level Denver Center
Mon 12:07:22 PM 40.0414 -104.7142 152° Southeast 198 228 8,000 -339 Level Denver Center
Mon 12:08:24 PM 39.9983 -104.6950 161° South 171 197 7,300 -774 Descending Denver Center
Mon 12:09:26 PM 39.9528 -104.6956 181° South 165 190 6,400 -823 Descending Denver Center
Mon 12:10:28 PM 39.9097 -104.6961 181° South 147 169 5,600 -532 Descending Denver Center
Mon 12:11:30 PM 39.8772 -104.6967 181° South 116 133 5,300 -290 Descending Denver Center
Mon 12:13:00 PM 39.8617 -104.6732 North  Level Estimated

Login

Don't have an account? Register now (free) for customized features, flight alerts, and more!